PICO-02D024

operational
NORAD ID: 60569 Int'l Des: 2024-149 Owner: APOGEO Country: I
LEOCIRCULARRETROGRADESSO

About PICO-02D024

Description loading...

Live Position

Loading 3D Globe...

Upcoming Passes

Altitude History

Altitude vs Time

uPlot chart will show altitude changes over time

Two-Line Element Set

1 60569U 24149DF 25312.71553641 .00168253 00000-0 43603-2 0 9994
2 60569 97.7023 39.0976 0002488 251.6672 108.4301 15.38351537 67811
Epoch: Nov 8, 2025 • Age: 42 hours

Current Status

Altitude 467.1 km
Velocity 7.63 km/s
Sub-Earth Point -47.91°S, 166.95°W
Launch Date Aug 16, 2024
Age 1.2 years
Type other

Technical Details

Classification Payload
Mass 0.50 kg
Dry Mass 0.50 kg
Total Mass 0.50 kg
Length 0.03 m
Diameter 0.10 m
Span 0.10 m
Shape Box
Manufacturer APOGEO
Bus Type Cubesat 0.3U
Phase Status In Orbit
Owner/State APOGEO/I

Large Constellations

Loading constellations...